RADUGA 11 [-]

Last updated on June 24, 2019, 3:40 a.m. UTC

1 13669U 82113A   19174.62671601 -.00000148  00000-0  00000+0 0  9994
2 13669  13.9501 332.6699 0037274 228.5745 308.6965  0.97709551 96612
UTC
Height (km)
Latitude
Longitude
Inclination
Orbital Period
UTC large
Height (km)
Speed (km/s)
/
Latitude / Longitude
Inclination (degrees)
Orbital Period (minutes)
Azimuth
Elevation
Range (km)
Doppler Factor
iOS Compass Heading
iOS Angle

Next 30 passes for location: Hong Kong

Rise time Rise Azimuth (degrees) Set time Set Azimuth (degrees) Duration Max altitude (degrees)

No matching passes for this satellites